Regional Weather Roundup
Issued by NWS Cleveland, OH

Home | Current Version | Previous Version | Graphics & Text | Print | Product List | Glossary On
Versions: 1 2 3 4 5 6 7 8 9 10 11 12 13 14 15 16 17 18 19 20 21 22 23 24 25 26 27 28 29 30 31 32 33 34 35 36 37 38 39 40 41 42 43 44 45 46 47 48 49 50
000
ASUS41 KCLE 241900
RWRCLE
OHIO REGIONAL WEATHER ROUNDUP
NATIONAL WEATHER SERVICE WILMINGTON, OH
200 PM EST WED DEC 24 2014

NOTE: "FAIR" INDICATES FEW OR NO CLOUDS BELOW 12,000 FEET WITH NO
SIGNIFICANT WEATHER AND/OR OBSTRUCTIONS TO VISIBILITY.

OHZ001>008-015>018-024>027-034-035-043-044-242000-
   NORTHWEST OHIO

CITY           SKY/WX    TMP DP  RH WIND       PRES   REMARKS
DEFIANCE       CLOUDY    44  42  93 N9        29.34F
FINDLAY        CLOUDY    56  54  93 S12       29.32F
TOLEDO EXPRESS LGT RAIN  51  50  96 W17       29.34F FOG
TOLEDO METCALF CLOUDY    56  53  90 S13       29.33F FOG
LIMA           CLOUDY    47  44  90 W8        29.35F FOG
$$

OHZ009>014-019>023-028>033-038-089-242000-
   NORTHEAST OHIO

CITY           SKY/WX    TMP DP  RH WIND       PRES   REMARKS
CLE-HOPKINS    CLOUDY    56  53  90 S12       29.43F
CLE-LAKEFRONT  CLOUDY    58  53  84 S12G21    29.40F
CUY CO. ARPT   CLOUDY    57  55  94 S18       29.42F
LORAIN-ELYRIA  CLOUDY    56  53  90 S14       29.40F
ASHTABULA      CLOUDY    54  50  86 S10       29.44F
AKRON-CANTON   CLOUDY    56  52  86 S10       29.44F
WOOSTER        NOT AVBL
MANSFIELD      LGT RAIN  55  55 100 S12       29.39F FOG
YOUNGSTOWN     CLOUDY    55  51  86 SE9       29.44F
$$

OHZ042-051>053-060>062-070>072-077>081-242000-
  SOUTHWEST OHIO

CITY           SKY/WX    TMP DP  RH WIND       PRES   REMARKS
CINC-COVINGTON LGT RAIN  56  52  86 S9        29.36F FOG
CINC-LUNKEN    LGT RAIN  55  55 100 S3        29.37F FOG
HAMILTON       CLOUDY    57  56  96 S7        29.36F FOG
DAYTON         NOT AVBL
WRIGHT-PAT AFB NOT AVBL
DAYTON GENERAL CLOUDY    55  54  96 S10       29.35F
WILMINGTON     LGT RAIN  56  53  90 S14       29.38F FOG
$$

OHZ036-037-039>041-045>050-054>059-063>069-073>076-082>088-242000-
  CENTRAL AND SOUTHEAST OHIO

CITY           SKY/WX    TMP DP  RH WIND       PRES   REMARKS
COLUMBUS       LGT RAIN  56  53  90 SE9       29.40F FOG
OSU AIRPORT    LGT RAIN  56  54  93 S13       29.39F FOG
BOLTON FIELD   DRIZZLE   55  55 100 SE10      29.41F
RICKENBACK AFB NOT AVBL
NEWARK         CLOUDY    57  53  86 S8        29.42F
MARION         CLOUDY    56  54  93 S14       29.38F FOG
LANCASTER      CLOUDY    58  54  86 S9        29.42F
ZANESVILLE     CLOUDY    56  52  86 S9        29.45F
NEW PHILLY     CLOUDY    58  53  84 SE3       29.44F
$$


USA.gov is the U.S. government's official web portal to all federal, state and local government web resources and services.